Location: ??? ?????
(30.6482°N, 60.5850°E)
Time: 07:40:15
(UTC+00:00)

OE (NEXTSAT) - Pass Details

Date: 09 April 2020
Orbit: 432 x 439 km, 46.0° (Epoch: 29 May)

Event Time Altitude Azimuth Distance (km) Brightness Sun altitude
Rises 15:02:40 0° 221° (SW) 2,398 8.5 -9.4°
Reaches altitude 10° 15:04:48 10° 217° (SW) 1,534 7.4 -9.8°
Maximum altitude 15:08:12 53° 139° (SE) 541 4.5 -10.5°
Drops below altitude 10° 15:11:36 10° 62° (ENE) 1,545 6.7 -11.2°
Enters shadow 15:11:45 - 61° (ENE) 1,601 6.8 -11.3°
